Lexington Weather

Lexington, Massachusetts, USA

71°F
8/7/2020 10:56am 
  • Lexington Conditions: Mostly cloudy
  • Temperature: 71.4°F / 21.9°CWarmer 2.0°F than last hour.
  • Dew Point: 63.1°FIncreased 1.2°Fsince last hour.
  • Relative Humidity: 75%Decreased 2.0% since last hour.
  • Wind: Calm, 10-min avg: Calm, gust: None
  • Barometer: 30.15 in Steady
  • Visibility: 10 miles
  • Rain Today: 0.00 in
  •   

Regional Weather Roundup
for Boston / Norton, MA

        
000
ASUS41 KBOX 040804
RWRBOX

REGIONAL WEATHER ROUNDUP
NATIONAL WEATHER SERVICE BOSTON/NORTON MA
400 AM EDT TUE AUG 04 2020

NOTE:  "FAIR" INDICATES FEW OR NO CLOUDS BELOW 12,000 FEET WITH NO 
SIGNIFICANT WEATHER AND/OR OBSTRUCTIONS TO VISIBILITY.

MAZALL-040900-
EASTERN MASSACHUSETTS
  
CITY           SKY/WX    TMP DP  RH WIND       PRES   REMARKS
BOSTON         CLOUDY    73  67  81 S3        30.05S                  
BEVERLY        MOCLDY    73  63  70 CALM      30.06R                  
LAWRENCE       MOCLDY    74  65  73 CALM      30.08R                  
BEDFORD        MOCLDY    72  66  81 CALM      30.04S                  
BLUE HILL      NOT AVBL                                               
NORWOOD        MOCLDY    73  67  81 CALM      30.05F                  
MARSHFIELD     CLOUDY    75  72  88 CALM      30.06S                  
PLYMOUTH       MOCLDY    72  69  90 CALM      30.07S                  
TAUNTON        MOCLDY    72  68  87 CALM      30.05F                  
NEW BEDFORD    MOCLDY    75  73  93 S5        30.06S FOG              
$$

MAZALL-040900-
CAPE COD AND THE ISLANDS
  
CITY           SKY/WX    TMP DP  RH WIND       PRES   REMARKS
FALMOUTH       CLOUDY    75  75 100 CALM      30.08S FOG              
HYANNIS        CLOUDY    78  76  93 S5        30.06F                  
CHATHAM        CLOUDY    77  74  90 SW5       30.09S                  
PROVINCETOWN   MOCLDY    71  70  96 S3        30.08R                  
NANTUCKET      FOG       74  73  97 SW3       30.09S VSB 3/4          
MARTHAS VNYRD  FOG       76  75  97 SW5       30.07S VSB 3/4          
$$
 
MAZALL-040900-
CENTRAL AND WESTERN MASSACHUSETTS
  
CITY           SKY/WX    TMP DP  RH WIND       PRES   REMARKS
WORCESTER      MOCLDY    71  66  84 CALM      30.09S                  
FITCHBURG      MOCLDY    73  64  73 CALM      30.07R                  
ORANGE         MOCLDY    70  68  93 CALM      30.08R                  
SPRINGFIELD    CLOUDY    71  70  98 CALM      30.05S                  
WESTFIELD      CLOUDY    70  69  97 CALM      30.05F                  
NORTH ADAMS    NOT AVBL                                               
PITTSFIELD     CLOUDY    67  66  97 N3        30.06F                  
$$
 
RIZALL-040900-
RHODE ISLAND
  
CITY           SKY/WX    TMP DP  RH WIND       PRES   REMARKS
PROVIDENCE     CLOUDY    76  73  91 S9        30.07S                  
NEWPORT        MOCLDY    75  71  87 SW5       30.07S                  
BLOCK ISLAND   CLOUDY    73  68  84 SW7       30.07F                  
SMITHFIELD     CLOUDY    74  72  93 S3        30.08F                  
WESTERLY       MOCLDY    73  68  84 CALM      30.06F                  
$$
 
CTZALL-040900-
CONNECTICUT
  
CITY           SKY/WX    TMP DP  RH WIND       PRES   REMARKS
BRADLEY INTL   CLOUDY    71  68  90 SW5       30.05R                  
HARTFORD       MOCLDY    74  67  78 CALM      30.04F                  
BRIDGEPORT     MOCLDY    73  70  90 N5        30.03F                  
DANBURY        MOCLDY    69  67  93 CALM      30.06S                  
GROTON         MOCLDY    74  70  87 S3        30.05F                  
NEW HAVEN      MOCLDY    73  71  93 N3        30.03F                  
CHESTER        FAIR      72  72 100 CALM      30.06F                  
MERIDEN        MOCLDY    70  68  93 CALM      30.04F                  
WILLIMANTIC    CLOUDY    75  71  87 CALM      30.06S                  
OXFORD         MOCLDY    69  68  96 CALM      30.06F                  
$$

MEZ002-015-021-024-NHZ003-005-008-011-012-014-VTZ005-008-040900-
NORTHERN NEW ENGLAND
  
CITY           SKY/WX    TMP DP  RH WIND       PRES   REMARKS
PORTLAND ME    PTCLDY    69  61  75 CALM      30.07S                  
BANGOR ME      PTCLDY    66  60  81 SW3       30.06S                  
CONCORD NH     MOCLDY    68  63  84 N8        30.01F                  
MANCHESTER NH  MOCLDY    74  62  66 S6        30.04F                  
NASHUA NH      MOCLDY    73  66  78 CALM      30.06R                  
PORTSMOUTH NH  CLOUDY    72  61  67 SE6       30.04S                  
JAFFREY NH     MOCLDY    66  64  93 CALM      30.08R                  
KEENE NH       MOCLDY    66  65  96 SW6       30.07R                  
BURLINGTON VT  MOCLDY    67  60  78 NE6       30.00F                  
MT. WASHINGTON CLOUDY    52  45  76 SW30        N/A                   
$$

NYZ052-076-040900-
EASTERN NEW YORK
  
CITY           SKY/WX    TMP DP  RH WIND       PRES   REMARKS
ALBANY         LGT RAIN  70  65  84 S8        30.02R                  
NEW YORK CITY  CLOUDY    76  69  79 E6        30.00F                  
$$
 
ANZALL-040900-
MARINE OBSERVATIONS
  
STATION/POSITION TIME  TEMP    WIND        PRES    VSBY  WAVE
                       AIR SEA DIR/SP/G                  HT/PER
                 (UTC) (F)     (DEG/KT/KT) (MB)    (MI)  (FT/S)
BOSTON BUOY      0750   71 71  170/  6/  8 1016.7          1/ 9
BUZZARDS BAY     0700          210/ 10/ 11 1019.2R
NANTUCKET SOUND  0740      76  200/  8/ 10   N/A
MASS BAY-STELLWA 0704   71      60/  4/  4 1015.1F  1 7/8  2/11
ISLE OF SHOALS   0700   74     330/  2/  2 1017.0F
S OF BLOCK IS    0726      76                N/A           4/ 7
$$

......................KEY.........................
  SKY/WX - SKY CONDITION/PRESENT WEATHER
  TMP    - TEMPERATURE IN FAHRENHEIT
  DWPT   - DEWPOINT IN FAHRENHEIT
  RH     - RELATIVE HUMIDITY IN PERCENT
  WIND   - DIRECTION AND SPEED IN MPH
  PRES   - MEAN SEA LEVEL PRESSURE IN INCHES OF HG
  WCI    - WIND CHILL INDEX
  VSB    - VISIBILITY IN MILES
  HX     - HEAT INDEX
  TC     - TEMPERATURE IN CELSIUS
  VRB    - VARIABLE WIND DIRECTION
  N/A    - NOT AVAILABLE
  
      

Other recent Regional Weather Roundups

Fri Aug 7, 10:04am

Fri Aug 7, 9:04am

Fri Aug 7, 8:04am

Fri Aug 7, 7:04am

Fri Aug 7, 6:04am

Fri Aug 7, 5:04am

Fri Aug 7, 4:04am

Fri Aug 7, 3:04am

Fri Aug 7, 2:04am

Fri Aug 7, 1:05am

Fri Aug 7, 12:04am

Thu Aug 6, 11:04pm

Thu Aug 6, 10:04pm

Thu Aug 6, 9:04pm

Thu Aug 6, 8:04pm

Thu Aug 6, 7:04pm

Thu Aug 6, 6:04pm

Thu Aug 6, 5:04pm

Thu Aug 6, 4:05pm

Thu Aug 6, 3:04pm

Thu Aug 6, 2:05pm

Thu Aug 6, 1:04pm

Thu Aug 6, 12:04pm

Thu Aug 6, 11:04am

Thu Aug 6, 10:04am

Thu Aug 6, 9:04am

Thu Aug 6, 8:04am

Thu Aug 6, 7:04am

Thu Aug 6, 6:04am

Thu Aug 6, 5:04am

Thu Aug 6, 4:04am

Thu Aug 6, 3:04am

Thu Aug 6, 2:05am

Thu Aug 6, 1:04am

Thu Aug 6, 12:04am

Wed Aug 5, 11:04pm

Wed Aug 5, 10:04pm

Wed Aug 5, 9:04pm

Wed Aug 5, 8:05pm

Wed Aug 5, 7:04pm

Wed Aug 5, 6:04pm

Wed Aug 5, 5:04pm

Wed Aug 5, 4:05pm

Wed Aug 5, 3:04pm

Wed Aug 5, 2:04pm

Wed Aug 5, 1:04pm

Wed Aug 5, 12:04pm

Wed Aug 5, 11:04am

Wed Aug 5, 10:04am

Wed Aug 5, 9:04am

Wed Aug 5, 8:04am

Wed Aug 5, 7:04am

Wed Aug 5, 6:04am

Wed Aug 5, 5:04am

Wed Aug 5, 4:04am

Wed Aug 5, 3:04am

Wed Aug 5, 2:05am

Wed Aug 5, 1:04am

Wed Aug 5, 12:05am

Tue Aug 4, 11:05pm

Tue Aug 4, 10:05pm

Tue Aug 4, 9:04pm

Tue Aug 4, 8:04pm

Tue Aug 4, 7:05pm

Tue Aug 4, 6:05pm

Tue Aug 4, 5:05pm

Tue Aug 4, 4:05pm

Tue Aug 4, 3:04pm

Tue Aug 4, 2:05pm

Tue Aug 4, 1:04pm

Tue Aug 4, 12:05pm

Tue Aug 4, 11:04am

Tue Aug 4, 10:04am

Tue Aug 4, 9:04am

Tue Aug 4, 8:04am

Tue Aug 4, 7:04am

Tue Aug 4, 6:04am

Tue Aug 4, 5:04am

Tue Aug 4, 3:04am

Tue Aug 4, 2:04am

Tue Aug 4, 1:04am

Tue Aug 4, 12:04am

Mon Aug 3, 11:04pm

Mon Aug 3, 10:04pm

Mon Aug 3, 9:04pm

Mon Aug 3, 8:05pm

Mon Aug 3, 7:04pm

Mon Aug 3, 6:04pm

Mon Aug 3, 5:04pm

Mon Aug 3, 4:05pm

Mon Aug 3, 3:04pm

Mon Aug 3, 2:04pm

Mon Aug 3, 1:04pm

Mon Aug 3, 12:05pm

Mon Aug 3, 11:04am

Mon Aug 3, 10:04am

Mon Aug 3, 9:05am

Mon Aug 3, 8:04am

Mon Aug 3, 7:04am

Mon Aug 3, 6:04am

Mon Aug 3, 5:04am

Mon Aug 3, 4:04am

Mon Aug 3, 3:04am

Mon Aug 3, 2:04am

Mon Aug 3, 1:04am

Mon Aug 3, 12:05am

Sun Aug 2, 11:04pm

Sun Aug 2, 10:04pm

Sun Aug 2, 9:04pm

Sun Aug 2, 8:04pm

Sun Aug 2, 7:04pm

Sun Aug 2, 6:04pm

Sun Aug 2, 5:04pm

Sun Aug 2, 4:05pm

Sun Aug 2, 3:04pm

Sun Aug 2, 2:05pm

Sun Aug 2, 1:04pm

Sun Aug 2, 12:04pm

Sun Aug 2, 11:04am

Sun Aug 2, 10:04am

Sun Aug 2, 9:05am

Sun Aug 2, 8:05am

Sun Aug 2, 7:04am

Sun Aug 2, 6:04am

Sun Aug 2, 5:04am

Sun Aug 2, 4:05am

Sun Aug 2, 3:04am

Sun Aug 2, 2:04am

Sun Aug 2, 1:04am

Sun Aug 2, 12:05am

Sat Aug 1, 11:04pm

Sat Aug 1, 10:04pm

Sat Aug 1, 9:04pm

Sat Aug 1, 8:05pm

Sat Aug 1, 7:04pm

Sat Aug 1, 6:04pm

Sat Aug 1, 5:05pm

Sat Aug 1, 4:05pm

Sat Aug 1, 3:04pm

Sat Aug 1, 2:04pm

Sat Aug 1, 1:04pm

Sat Aug 1, 12:04pm

Sat Aug 1, 11:05am

Sat Aug 1, 10:05am

Sat Aug 1, 9:04am

Sat Aug 1, 8:04am

Sat Aug 1, 7:04am

Sat Aug 1, 6:04am

Sat Aug 1, 5:04am

Sat Aug 1, 4:05am

Sat Aug 1, 3:04am

Sat Aug 1, 2:04am

Sat Aug 1, 1:04am

Sat Aug 1, 12:05am

Fri Jul 31, 11:05pm

Fri Jul 31, 10:04pm

Fri Jul 31, 9:04pm

Fri Jul 31, 8:05pm

Fri Jul 31, 7:05pm

Fri Jul 31, 6:04pm

Fri Jul 31, 5:04pm

Fri Jul 31, 4:05pm

Fri Jul 31, 3:04pm

Fri Jul 31, 2:05pm

Fri Jul 31, 1:04pm

Fri Jul 31, 12:04pm

Fri Jul 31, 11:04am

Meta data:

ID: ba7efc61-a4ce-4201-9451-a5a0f10ea195
Link: https://api.weather.gov/products/ba7efc61-a4ce-4201-9451-a5a0f10ea195